STARLINK-1585, 46117

Orbit data source: Space-Track

STARLINK-1585, 46117 is a payload satellite owned by SpaceX/Seattle (US) in LEO that was launched on Tue, 18 Aug 2020 UTC via an FALCON 9 launch vehicle from the Air Force Eastern Test Range (AFETR). Payload-class satellites include a variety of spacecraft equipped with specific instruments for various scientific and technological missions. These include communications satellites like Starlink; space stations such as the ISS; scientific satellites like the Hubble; Earth observation satellites from companies like Planet Labs, Umbra, and HawkEye 360; GPS; miniature CubeSats for education and research; and military/defense satellites.

Loading next visibility...
Identifier
46117, 2020-057A
Orbit
LEO
Country
Flag of USUS
Related business
Manufacturer
SpaceX/Seattle
Mission
Operational Commercial Communications
Bus & Motor
STARLINK, Unknown motor
Mass
260 kg wet, ~248 kg dry
Launch date (UTC)
2020-08-18 (5 years ago)
Launch vehicle
FALCON 9
Launch site
Air Force Eastern Test Range (AFETR)
Object type
Payload
Rocket body
Debris
Shape & HBR
Box + 1 Pan, 10.1 m
Radar Cross Section
13.562 m², Large (>1 m²)

Expand to show TLE details & history
Last TLE update: 8 hours ago

TLE from 8 hours ago
0 STARLINK-1585
1 46117U 20057A   25293.33336806  .01737167  00000-0  66656-1 0  9998
2 46117  53.0559 206.1720 0001426  97.3295  32.7029 15.23003184  5807
Epoch: 2025-10-20T08:00Z
TLE epoch observation values (Epoch: 2025-10-20T08:00:03.000Z)
Latitude
37.84746°
Longitude
-158.40612°
Altitude
499.094 km
Speed
7.62 km/s
True Right ascension
23h 22m 34s
True Declination
37° 40' 29"
Sunlit
Object was in full shadow at epoch
Visualization orbit readout
Latitude
Unknown
Longitude
Unknown
Altitude
Unknown
Speed
Unknown
Apparent Right ascension
Unknown
Apparent Declination
Unknown
Sunlit
N/A
Visualization observer readout
Local Sidereal Time
11:15:33
Azimuth
Unknown
Elevation
Unknown
Doppler factor
Unknown
Orbital elements
Apogee altitude
498.041 km
Perigee altitude
496.08 km
Semi-major axis
6,875.197 km
Eccentricity
0.00014
Inclination
53.0559°
RAAN
206.172°
Arg. of periapsis
97.3295°
True anomaly
32.71173°
Mean anomaly
32.7029°
Eccentric anomaly
32.70731°
Mean motion
3.80729 °/min
Orbital period
94.56 mins
BSTAR
0.066656
Loading maneuver chart data...
Computing Atmospheric mass density...
Loading historical data...
Loading historical data...
Loading historical data...
Loading historical data...
Loading historical data...
Loading historical data...
Loading historical data...

Documentation

Showing up to 5 results
|